Date String (YYYY-MM-DD hh:mm:ss) UTC,Instrument flags,Ambient pressure (hPa),Sample flow (lpm),Bypass flow (lpm),Sample temperature (°C),Ambient temperature (°C),ASC tube jacket temperature (°C),LED temperature (°C),Box temperature (°C),Sample RH (%),Span deviation,Mass concentration (μg/m³),Mass concentration (μg/m³),Mass concentration (μg/m³)
DateTimeUTC,F1_M11,P_M11,Q1_M11,Q2_M11,T1_M11,T2_M11,T3_M11,T4_M11,T5_M11,U1_M11,ZSPAN_M11,X2_M11,X0_M11,X1_M11
2021-09-14 01:00:00,,0825.9,5.00,0.00,29.5,28.7,00.0,38.4,31.4,23.5,0000.0,0004.86,0018.81,0003.14
2021-09-14 01:01:00,,0825.9,5.01,0.00,29.5,28.1,00.0,38.5,31.3,23.2,0000.0,0004.84,0019.13,0003.14
2021-09-14 01:02:00,,0825.9,5.00,0.00,29.4,26.2,00.0,38.4,30.9,23.4,0000.0,0004.84,0018.86,0003.15
2021-09-14 01:03:00,,0825.9,5.00,0.00,29.3,25.5,00.0,38.4,30.6,23.6,0000.0,0004.86,0019.22,0003.15
2021-09-14 01:04:00,,0825.8,5.00,0.00,29.2,25.8,00.0,38.4,30.7,23.6,0000.0,0004.84,0020.09,0003.14
2021-09-14 01:05:00,,0825.8,5.00,0.00,29.1,26.3,00.0,38.3,30.7,23.7,0000.0,0004.81,0019.17,0003.15
2021-09-14 01:06:00,,0825.8,5.00,0.00,29.1,26.8,00.0,38.3,30.8,23.6,0000.0,0004.79,0018.24,0003.15
2021-09-14 01:07:00,,0825.8,5.00,0.00,29.2,27.2,00.0,38.3,30.9,23.3,0000.0,0004.82,0018.68,0003.16
2021-09-14 01:08:00,,0825.8,5.00,0.00,29.2,27.5,00.0,38.3,31.0,23.3,0000.0,0004.85,0020.20,0003.16
2021-09-14 01:09:00,,0825.8,5.00,0.00,29.2,27.8,00.0,38.3,31.1,23.2,0000.0,0004.83,0021.38,0003.16
2021-09-14 01:10:00,,0825.8,5.00,0.00,29.3,28.0,00.0,38.3,31.1,22.9,0000.0,0004.76,0021.64,0003.16
2021-09-14 01:11:00,,0825.8,5.00,0.00,29.3,28.2,00.0,38.3,31.2,22.7,0000.0,0004.75,0021.44,0003.17
2021-09-14 01:12:00,,0825.9,5.00,0.00,29.4,28.4,00.0,38.3,31.2,22.4,0000.0,0004.76,0021.29,0003.18
2021-09-14 01:13:00,,0825.9,5.00,0.00,29.4,28.5,00.0,38.3,31.3,22.4,0000.0,0004.78,0021.38,0003.19
2021-09-14 01:14:00,,0825.9,5.00,0.00,29.4,28.6,00.0,38.4,31.4,22.3,0000.0,0004.75,0021.08,0003.20
2021-09-14 01:15:00,,0826.0,5.00,0.00,29.5,28.7,00.0,38.4,31.4,22.3,0000.0,0004.76,0020.63,0003.21
2021-09-14 01:16:00,,0826.0,5.01,0.00,29.5,28.8,00.0,38.4,31.4,22.3,0000.0,0004.74,0020.25,0003.21
2021-09-14 01:17:00,,0826.0,5.00,0.00,29.6,28.8,00.0,38.5,31.4,22.3,0000.0,0004.77,0019.55,0003.22
2021-09-14 01:18:00,,0826.1,5.00,0.00,29.5,27.3,00.0,38.5,31.1,22.2,0000.0,0004.79,0019.27,0003.22
2021-09-14 01:19:00,,0826.1,5.00,0.00,29.4,25.7,00.0,38.4,30.7,22.5,0000.0,0004.82,0017.96,0003.22
2021-09-14 01:20:00,,0826.2,5.00,0.00,29.3,25.6,00.0,38.4,30.7,22.4,0000.0,0004.84,0016.37,0003.22
2021-09-14 01:21:00,,0826.2,5.01,0.00,29.2,26.0,00.0,38.4,30.7,22.5,0000.0,0004.87,0015.68,0003.24
2021-09-14 01:22:00,,0826.1,4.99,0.00,29.2,26.5,00.0,38.3,30.8,22.6,0000.0,0004.88,0015.54,0003.22
2021-09-14 01:23:00,,0826.2,5.00,0.00,29.2,26.9,00.0,38.3,30.9,22.7,0000.0,0004.89,0015.48,0003.21
2021-09-14 01:24:00,,0826.2,5.01,0.00,29.2,27.3,00.0,38.3,30.9,22.6,0000.0,0004.87,0016.26,0003.21
2021-09-14 01:25:00,,0826.2,5.00,0.00,29.2,27.6,00.0,38.3,31.0,22.5,0000.0,0004.89,0016.17,0003.21
2021-09-14 01:26:00,,0826.2,4.99,0.00,29.2,27.9,00.0,38.3,31.1,22.4,0000.0,0004.90,0016.13,0003.21
2021-09-14 01:27:00,,0826.2,5.00,0.00,29.3,28.1,00.0,38.3,31.1,22.6,0000.0,0004.89,0016.58,0003.22
2021-09-14 01:28:00,,0826.2,5.00,0.00,29.3,28.3,00.0,38.3,31.2,22.6,0000.0,0004.93,0016.66,0003.22
2021-09-14 01:29:00,,0826.2,5.00,0.00,29.4,28.4,00.0,38.3,31.2,22.6,0000.0,0004.87,0016.34,0003.23
2021-09-14 01:30:00,,0826.2,5.00,0.00,29.4,28.5,00.0,38.4,31.3,22.6,0000.0,0004.87,0017.57,0003.24
2021-09-14 01:31:00,,0826.2,5.00,0.00,29.5,28.6,00.0,38.4,31.3,22.8,0000.0,0004.90,0017.89,0003.24
2021-09-14 01:32:00,,0826.2,4.98,0.00,29.5,28.7,00.0,38.4,31.4,22.4,0000.0,0004.85,0017.98,0003.24
2021-09-14 01:33:00,,0826.2,5.00,0.00,29.6,28.8,00.0,38.4,31.4,22.2,0000.0,0004.84,0018.61,0003.25
2021-09-14 01:34:00,,0826.2,5.01,0.00,29.6,28.3,00.0,38.5,31.3,22.1,0000.0,0004.85,0019.52,0003.26
2021-09-14 01:35:00,,0826.2,4.99,0.00,29.4,26.3,00.0,38.4,30.8,22.3,0000.0,0004.84,0018.58,0003.27
2021-09-14 01:36:00,,0826.2,4.99,0.00,29.3,25.4,00.0,38.4,30.5,22.5,0000.0,0004.82,0017.34,0003.26
2021-09-14 01:37:00,,0826.2,5.02,0.00,29.2,25.7,00.0,38.4,30.6,22.3,0000.0,0004.78,0016.66,0003.26
2021-09-14 01:38:00,,0826.2,5.00,0.00,29.1,26.2,00.0,38.3,30.7,22.1,0000.0,0004.83,0017.28,0003.26
2021-09-14 01:39:00,,0826.2,5.00,0.00,29.1,26.7,00.0,38.3,30.8,21.8,0000.0,0004.86,0017.66,0003.26
2021-09-14 01:40:00,,0826.2,4.99,0.00,29.1,27.1,00.0,38.3,30.9,21.6,0000.0,0004.83,0017.51,0003.25
2021-09-14 01:41:00,,0826.2,5.01,0.00,29.2,27.5,00.0,38.3,31.0,20.4,0000.0,0004.79,0016.50,0003.24
2021-09-14 01:42:00,,0826.2,5.00,0.00,29.2,27.8,00.0,38.3,31.0,21.0,0000.0,0004.73,0016.01,0003.23
2021-09-14 01:43:00,,0826.2,4.98,0.00,29.2,28.0,00.0,38.3,31.1,21.2,0000.0,0004.74,0016.29,0003.23
2021-09-14 01:44:00,,0826.2,5.01,0.00,29.3,28.2,00.0,38.3,31.1,20.3,0000.0,0004.65,0015.37,0003.20
2021-09-14 01:45:00,,0826.2,5.01,0.00,29.3,28.3,00.0,38.3,31.2,20.1,0000.0,0004.55,0014.18,0003.17
2021-09-14 01:46:00,,0826.2,4.99,0.00,29.4,28.4,00.0,38.3,31.3,19.3,0000.0,0004.48,0014.54,0003.13
2021-09-14 01:47:00,,0826.2,5.01,0.00,29.4,28.6,00.0,38.4,31.3,19.5,0000.0,0004.36,0014.10,0003.06
2021-09-14 01:48:00,,0826.2,4.99,0.00,29.5,28.7,00.0,38.4,31.4,19.4,0000.0,0004.27,0013.70,0002.99
2021-09-14 01:49:00,,0826.3,5.00,0.00,29.5,28.8,00.0,38.4,31.4,19.3,0000.0,0004.16,0012.76,0002.91
2021-09-14 01:50:00,,0826.3,5.00,0.00,29.6,28.8,00.0,38.4,31.5,19.0,0000.0,0003.95,0012.33,0002.80
2021-09-14 01:51:00,,0826.3,5.00,0.00,29.6,28.4,00.0,38.5,31.3,18.9,0000.0,0003.84,0012.97,0002.70
2021-09-14 01:52:00,,0826.3,5.01,0.00,29.5,26.5,00.0,38.5,30.9,18.9,0000.0,0003.76,0013.56,0002.62
2021-09-14 01:53:00,,0826.3,4.99,0.00,29.3,25.5,00.0,38.4,30.6,19.1,0000.0,0003.73,0013.50,0002.57
2021-09-14 01:54:00,,0826.4,5.00,0.00,29.2,25.7,00.0,38.4,30.6,19.2,0000.0,0003.60,0012.79,0002.48
2021-09-14 01:55:00,,0826.4,5.02,0.00,29.1,26.2,00.0,38.4,30.7,19.4,0000.0,0003.53,0012.42,0002.42
2021-09-14 01:56:00,,0826.5,4.99,0.00,29.1,26.7,00.0,38.3,30.8,19.3,0000.0,0003.56,0012.27,0002.38
2021-09-14 01:57:00,,0826.5,4.99,0.00,29.1,27.1,00.0,38.3,30.9,19.7,0000.0,0003.57,0011.94,0002.37
2021-09-14 01:58:00,,0826.5,5.03,0.00,29.2,27.5,00.0,38.3,30.9,19.0,0000.0,0003.59,0012.16,0002.37
2021-09-14 01:59:00,,0826.4,4.99,0.00,29.2,27.7,00.0,38.3,31.0,19.2,0000.0,0003.56,0012.21,0002.36
